DW3649 Weather Reports


Display with metric or nautical units.
time (UTC)temp
F
wind
direction
speed
MPH
gust
MPH
rain 1hr
in
rain 24hr
in
rain mn
in
humidity
%
barometer
mb
20260507033006 60 90 0.0 0.0 0.00 0.00 0.00 65 1014.9
20260507031507 60 90 0.0 0.0 0.00 0.00 0.00 66 1014.8
20260507030007 60 90 0.0 0.0 0.00 0.00 0.00 66 1014.8
20260507024504 60 90 0.0 0.0 0.00 0.00 0.00 64 1014.7
20260507023003 61 90 0.0 0.0 0.00 0.00 0.00 64 1014.7
20260507021501 61 90 0.0 0.0 0.00 0.00 0.00 62 1014.5
20260507020101 61 90 1.0 0.0 0.00 0.00 0.00 62 1014.7
20260507014600 61 90 0.0 0.0 0.00 0.00 0.00 59 1014.7
20260507013058 61 90 0.0 0.0 0.00 0.00 0.00 57 1014.5
20260507011600 61 90 0.0 0.0 0.00 0.00 0.00 55 1014.3
20260507010056 61 90 0.0 0.0 0.00 0.00 0.00 55 1014.0
20260507004555 62 90 0.0 0.0 0.00 0.00 0.00 56 1014.0
20260507003053 62 90 0.0 0.0 0.00 0.00 0.00 56 1013.8
20260507001554 62 90 0.0 0.0 0.00 0.00 0.00 56 1013.8
20260507000053 62 90 0.0 0.0 0.00 0.00 0.00 55 1014.1
20260506234603 62 90 0.0 0.0 0.00 0.00 0.00 55 1014.4
20260506233046 62 90 0.0 0.0 0.00 0.00 0.00 54 1014.5
20260506231544 63 90 0.0 0.0 0.00 0.00 0.00 53 1014.6
20260506230043 63 90 0.0 0.0 0.00 0.00 0.00 53 1014.7
20260506224545 63 90 0.0 0.0 0.00 0.00 0.00 52 1014.7
20260506223048 63 90 0.0 0.0 0.00 0.00 0.00 53 1014.7
20260506221540 63 90 0.0 0.0 0.00 0.00 0.00 53 1014.8
20260506220039 63 90 0.0 0.0 0.00 0.00 0.00 53 1014.8
20260506214540 63 90 1.0 0.0 0.00 0.00 0.00 52 1014.8
20260506213034 64 90 0.0 0.0 0.00 0.00 0.00 51 1014.9
20260506211532 65 90 0.0 0.0 0.00 0.00 0.00 51 1015.2
20260506210035 65 90 0.0 0.0 0.00 0.00 0.00 54 1015.3
20260506204545 65 90 1.0 0.0 0.00 0.00 0.00 51 1015.4
20260506203030 65 90 0.0 0.0 0.00 0.00 0.00 47 1015.4
20260506201532 66 90 0.0 0.0 0.00 0.00 0.00 46 1015.2
20260506200025 67 90 0.0 0.0 0.00 0.00 0.00 46 1015.2
20260506194523 67 90 0.0 0.0 0.00 0.00 0.00 45 1015.0
20260506193022 67 90 0.0 0.0 0.00 0.00 0.00 44 1014.8
20260506191522 67 90 1.0 0.0 0.00 0.00 0.00 44 1014.6
20260506190021 68 90 1.0 0.0 0.00 0.00 0.00 43 1014.4
20260506184520 68 126 1.0 0.0 0.00 0.00 0.00 43 1014.4
20260506183021 68 126 0.0 0.0 0.00 0.00 0.00 42 1014.3
20260506181525 69 126 0.0 0.0 0.00 0.00 0.00 41 1014.0
20260506180020 70 126 1.0 0.0 0.00 0.00 0.00 37 1014.0
20260506174518 70 155 2.0 0.0 0.00 0.00 0.00 37 1013.8
20260506173018 70 140 3.0 0.0 0.00 0.00 0.00 37 1013.6
20260506171530 70 125 4.0 0.0 0.00 0.00 0.00 37 1013.6
20260506170017 71 150 4.0 0.0 0.00 0.00 0.00 37 1013.5
20260506164519 71 201 5.0 0.0 0.00 0.00 0.00 38 1013.4
20260506163017 71 155 5.0 0.0 0.00 0.00 0.00 37 1013.5
20260506161514 72 165 5.0 0.0 0.00 0.00 0.00 35 1013.4
20260506160021 72 144 7.0 0.0 0.00 0.00 0.00 35 1013.4
20260506154514 72 124 7.0 0.0 0.00 0.00 0.00 35 1013.4
20260506153014 71 149 7.0 0.0 0.00 0.00 0.00 36 1013.6
20260506151520 72 157 7.0 0.0 0.00 0.00 0.00 37 1013.6
20260506150025 72 171 5.0 0.0 0.00 0.00 0.00 38 1013.6
20260506144513 72 136 8.0 0.0 0.00 0.00 0.00 40 1013.6
20260506143033 72 133 10.0 0.0 0.00 0.00 0.00 40 1013.7
20260506141512 72 154 7.0 0.0 0.00 0.00 0.00 41 1013.7
20260506140013 72 196 8.0 0.0 0.00 0.00 0.00 41 1013.7
20260506134511 72 145 7.0 0.0 0.00 0.00 0.00 42 1013.9
20260506133009 72 218 8.0 0.0 0.00 0.00 0.00 42 1013.9
20260506131514 73 171 7.0 0.0 0.00 0.00 0.00 41 1013.9
20260506130010 73 144 7.0 0.0 0.00 0.00 0.00 40 1013.9
20260506124508 72 163 7.0 0.0 0.00 0.00 0.00 40 1014.0
20260506123008 73 196 6.0 0.0 0.00 0.00 0.00 39 1014.0
20260506121508 73 176 6.0 0.0 0.00 0.00 0.00 38 1014.2
20260506120007 72 161 6.0 0.0 0.00 0.00 0.00 36 1014.3
20260506114507 73 198 6.0 0.0 0.00 0.00 0.00 37 1014.4
20260506113007 72 131 6.0 0.0 0.00 0.00 0.00 41 1014.5
20260506111508 72 146 5.0 0.0 0.00 0.00 0.00 40 1014.5
20260506110006 71 213 7.0 0.0 0.00 0.00 0.00 41 1014.6
20260506104503 71 123 7.0 0.0 0.00 0.00 0.00 43 1014.6
20260506103003 73 209 5.0 0.0 0.00 0.00 0.00 40 1014.6
20260506101606 72 138 6.0 0.0 0.00 0.00 0.00 41 1014.6
20260506100104 72 161 6.0 0.0 0.00 0.00 0.00 42 1014.7
20260506094600 72 184 3.0 0.0 0.00 0.00 0.00 42 1014.7
20260506093105 72 157 5.0 0.0 0.00 0.00 0.00 43 1014.7
20260506091557 72 117 4.0 0.0 0.00 0.00 0.00 42 1014.8
20260506090100 71 138 4.0 0.0 0.00 0.00 0.00 43 1014.8
20260506084553 71 173 4.0 0.0 0.00 0.00 0.00 42 1014.7
20260506083051 70 198 4.0 0.0 0.00 0.00 0.00 44 1014.8
20260506081551 70 224 5.0 0.0 0.00 0.00 0.00 44 1014.7
20260506073047 70 125 3.0 0.0 0.00 0.00 0.00 45 1014.4
20260506071600 70 117 1.0 0.0 0.00 0.00 0.00 45 1014.3
20260506061543 72 67 0.0 0.0 0.00 0.00 0.00 39 1014.3
20260506044525 63 67 0.0 0.0 0.00 0.00 0.00 55 1013.8
20260506043022 62 67 0.0 0.0 0.00 0.00 0.00 57 1013.9
20260506041528 61 67 0.0 0.0 0.00 0.00 0.00 58 1013.7
20260506040025 60 67 0.0 0.0 0.00 0.00 0.00 59 1013.6
20260506034520 60 67 0.0 0.0 0.00 0.00 0.00 59 1013.4